Location: Jetmore Oil Field
(38.1181°N, 99.9337°W)
Time: 09:22:09
(UTC+00:00)

STARLINK-2616 - Visible Passes

Search period start: 28 October 2021 00:00
Search period end: 07 November 2021 00:00
Orbit: 546 x 548 km, 53.1° (Epoch: 27 October)

Date Brightness Start Highest point End Pass type
(mag) Time Alt. Az. Time Alt. Az. Time Alt. Az.
28 Oct 5.8 11:25:15 14° NNW 11:25:15 14° NNW 11:27:21 10° NNE visible
29 Oct 5.9 11:19:24 12° N 11:19:24 12° N 11:20:54 10° NNE visible
30 Oct 6.1 11:13:34 11° N 11:13:34 11° N 11:14:32 10° N visible
31 Oct 6.2 11:07:46 10° N 11:07:46 10° N 11:08:10 10° N visible
02 Nov 5.9 12:34:04 10° NNW 12:36:45 16° NNE 12:39:26 10° ENE visible
03 Nov 5.7 12:27:58 10° NNW 12:31:00 19° NNE 12:34:02 10° ENE visible
04 Nov 6.5 10:45:13 10° NNE 10:45:13 10° NNE 10:45:14 10° NNE visible
04 Nov 5.5 12:21:56 10° NNW 12:25:17 23° NNE 12:28:37 10° E visible
05 Nov 6.5 10:39:47 11° NNE 10:39:47 11° NNE 10:40:10 10° NNE visible
05 Nov 5.2 12:16:00 10° NNW 12:19:36 28° NNE 12:23:12 10° E visible
06 Nov 6.5 10:34:28 11° NNE 10:34:28 11° NNE 10:35:08 10° NE visible
06 Nov 4.9 12:10:08 10° NW 12:13:57 35° NNE 12:17:46 10° E visible
